Orbital Elements at Epoch 2459200.5 (2020-Dec-17.0) TDB
Reference: JPL 27 (heliocentric ecliptic J2000)
Element | Value | Uncertainty (1-sigma) | Units |
e | .141547127094161 | 3.518e-08 | |
a | 3.167056536417288 | 1.6617e-08 | au |
q | 2.718768782342636 | 1.1531e-07 | au |
i | 4.973143941909002 | 3.7006e-06 | deg |
node | 18.9941361722235 | 3.8192e-05 | deg |
peri | 315.3282602793165 | 4.0453e-05 | deg |
M | 17.52706029317714 | 1.162e-05 | deg |
tp | 2459100.272076910362 (2020-Sep-07.77207691) | 6.6557e-05 | TDB |
period | 2058.648267805388 5.64 | 1.6202e-05 4.436e-08 | d yr |
n | .1748720291999061 | 1.3763e-09 | deg/d |
Q | 3.615344290491939 | 1.8969e-08 | au |
|
| | Orbit Determination Parameters
Additional Information
|